User: anonymous   Login
Location: Belfast
(54.5830°N, 5.9330°W)
Time: 18:05:53
(UTC+01:00)
Language:

Coronas F rocket - Orbit

View from above orbital plane
View from above orbital plane
View from above satellite
View from above satellite

Ground track
Ground track

The orbit data is extracted from the following two-line orbital elements,

1 26874U 01032B   15116.84932557  .00021442  00000-0  23167-3 0  9995
2 26874 082.4687 012.3300 0011025 346.0301 014.0650 15.63388322770101
Epoch (UTC): 26 April 2015 20:23:01
Eccentricity: 0.0011025
inclination: 82.4687°
perigee height: 370 km
apogee height: 385 km
right ascension of ascending node: 12.3300°
argument of perigee: 346.0301°
revolutions per day: 15.63388322
mean anomaly at epoch: 14.0650°
orbit number at epoch: 77010

The dashed part of the orbit path shows where the satellite is in the earth's shadow,  

DLR